カタログに戻る

STARLINK-3369

運用中通信VLEO
NORAD 51142·PAYLOAD·🇺🇸 United States

打ち上げ Jan 19, 2022 から Cape Canaveral Space Force Station

Loading…

次のパス (今後24時間)

TLE

最新Source: CelesTrak SupGP

元期: Sep 14, 2026, 20:48 UTC

1 51142C 22005AQ  26257.86715278 -.00003634  00000+0 -12466-3 0  2574
2 51142  53.2153 131.8100 0006355  93.5569 285.2946 15.29607418    14

AllMySatでSTARLINK-3369をリアルタイム追跡

Download on the App Store